Starlink 11253

operational
NORAD ID: 60935 Int'l Des: 2024-155 Owner: SPXS Country: US Constellation: starlink
LEOCIRCULAR

Über Starlink 11253

Beschreibung wird geladen...

Live-Position

3D-Globus wird geladen...

Nächste Überflüge

Höhenverlauf

Altitude vs Time

uPlot chart will show altitude changes over time

Zweizeiliger Elementsatz

1 60935U 24155M 25306.13060012 -.00000538 00000-0 41644-6 0 9991
2 60935 53.1598 250.3741 0001225 78.5069 281.6087 15.69733156 68364
Epoch: 2. Nov. 2025 • Age: 41 hours

Aktueller Status

Höhe 359.5 km
Geschwindigkeit 7.70 km/s
Subsatellitenpunkt 15.32°N, 96.78°W
Startdatum 31. Aug. 2024
Alter 1.1 years
Typ internet

Technische Details

Klassifizierung Payload
Masse 960.00 kg
Trockenmasse 910.00 kg
Gesamtmasse 960.00 kg
Länge 0.30 m
Durchmesser 4.10 m
Spannweite 29.00 m
Form Box + pan
Hersteller SPXS
Bus-Typ Starlink V2MD
Phasenstatus In Orbit
Besitzer/Staat SPXS/US

Große Konstellationen

Loading constellations...